Weather History for Pocatello, ID

Change the Weather History Date:

Monday, February 18, 2013

  Actual Average Record
Temperature  
Mean Temperature 29 °F 29 °F  
Max Temperature 39 °F 38 °F 60 °F (1958)
Min Temperature 19 °F 20 °F -23 °F (1942)
Degree Days  
Heating Degree Days 36 36  
Month to date heating degree days 604 686  
Since 1 July heating degree days 4712 4933  
Cooling Degree Days 0 0  
Month to date cooling degree days 0 0  
Year to date cooling degree days 0 0  
Moisture  
Dew Point 16 °F    
Average Humidity 60    
Maximum Humidity 84    
Minimum Humidity 35    
Precipitation  
Precipitation 0.00 in 0.03 in 0.32 in (1980)
Month to date precipitation 0.09 0.58  
Year to date precipitation 0.66 1.57  
Snow  
Snow 0.00 in - - ()
Month to date snowfall 1.8  
Since 1 July snowfall 28.4  
Snow Depth 0.00 in    
Sea Level Pressure  
Sea Level Pressure 30.10 in    
Wind  
Wind Speed 7 mph (SSW)    
Max Wind Speed 24 mph    
Max Gust Speed 30 mph    
Visibility 10 miles    
Events      
T = Trace of Precipitation, MM = Missing Value Source: NWS Daily Summary

Daily Weather History Graph

Daily Weather History Graph

Search for Another Location

Airport:

Trip Planner

Search our weather history database for the weather conditions in past years. The results will help you decide how hot, cold, wet, or windy it might be!

Date:

Astronomy

Feb. 18, 2013 Rise Set
Actual Time 7:22 AM MST 6:06 PM MST
Civil Twilight 6:53 AM MST 6:35 PM MST
Nautical Twilight 6:20 AM MST 7:08 PM MST
Astronomical Twilight 5:48 AM MST 7:40 PM MST
Moon 11:50 AM MST (2/18) 2:10 AM MST (2/18)
Length of Visible Light 11h 41m
Length of Day
10h 43m
First Quarter, 59% of the Moon is Illuminated
Feb 18
First Quarter
Feb 25
Full
Mar 4
Last Quarter
Mar 11
New
Mar 19
First Quarter

Hourly Weather History & Observations

Time (MST) Temp. Windchill Dew Point Humidity Pressure Visibility Wind Dir Wind Speed Gust Speed Precip Events Conditions
12:53 AM 30.0 °F 21.1 °F 19.0 °F 64% 30.12 in 10.0 mi SW 10.4 mph - N/A   Overcast
1:53 AM 28.0 °F 20.8 °F 19.9 °F 72% 30.12 in 10.0 mi WSW 6.9 mph - N/A   Overcast
2:53 AM 28.9 °F 18.2 °F 19.0 °F 67% 30.13 in 10.0 mi WSW 13.8 mph - N/A   Mostly Cloudy
3:53 AM 27.0 °F 18.0 °F 19.0 °F 72% 30.13 in 10.0 mi SW 9.2 mph - N/A   Clear
4:53 AM 23.0 °F 14.7 °F 18.0 °F 81% 30.14 in 10.0 mi WSW 6.9 mph - N/A   Clear
5:53 AM 21.0 °F 13.4 °F 18.0 °F 88% 30.17 in 10.0 mi South 5.8 mph - N/A   Clear
6:53 AM 21.0 °F - 17.1 °F 85% 30.19 in 10.0 mi Calm Calm - N/A   Scattered Clouds
7:53 AM 19.9 °F - 16.0 °F 85% 30.19 in 10.0 mi Calm Calm - N/A   Partly Cloudy
8:53 AM 27.0 °F - 21.0 °F 78% 30.19 in 10.0 mi Calm Calm - N/A   Partly Cloudy
9:53 AM 32.0 °F - 19.0 °F 59% 30.17 in 10.0 mi Calm Calm - N/A   Partly Cloudy
10:53 AM 35.1 °F 27.4 °F 16.0 °F 46% 30.16 in 10.0 mi SSW 10.4 mph - N/A   Partly Cloudy
11:53 AM 36.0 °F 28.0 °F 17.1 °F 46% 30.15 in 10.0 mi SW 11.5 mph - N/A   Scattered Clouds
12:53 PM 37.9 °F 30.9 °F 16.0 °F 41% 30.12 in 10.0 mi South 10.4 mph 18.4 mph N/A   Scattered Clouds
1:53 PM 37.9 °F 30.9 °F 12.0 °F 35% 30.11 in 10.0 mi SSW 10.4 mph - N/A   Scattered Clouds
2:53 PM 37.0 °F 28.1 °F 15.1 °F 41% 30.09 in 10.0 mi South 15.0 mph 21.9 mph N/A   Partly Cloudy
3:53 PM 36.0 °F 25.3 °F 16.0 °F 44% 30.09 in 10.0 mi South 19.6 mph 25.3 mph N/A   Partly Cloudy
4:53 PM 36.0 °F 28.0 °F 12.9 °F 39% 30.08 in 10.0 mi South 11.5 mph - N/A   Clear
5:53 PM 33.1 °F 26.1 °F 12.0 °F 42% 30.09 in 10.0 mi South 8.1 mph - N/A   Clear
6:53 PM 28.9 °F - 16.0 °F 58% 30.09 in 10.0 mi Calm Calm - N/A   Clear
7:53 PM 28.0 °F 22.8 °F 16.0 °F 61% 30.08 in 10.0 mi ENE 4.6 mph - N/A   Clear
8:53 PM 28.9 °F 21.1 °F 16.0 °F 58% 30.02 in 10.0 mi East 8.1 mph - N/A   Clear
9:53 PM 28.0 °F 20.0 °F 14.0 °F 56% 29.99 in 10.0 mi East 8.1 mph - N/A   Clear
10:53 PM 27.0 °F 21.6 °F 12.0 °F 53% 29.98 in 10.0 mi WNW 4.6 mph - N/A   Scattered Clouds
11:53 PM 23.0 °F - 15.1 °F 72% 29.96 in 10.0 mi Calm Calm - N/A   Clear